TimeMDT,TemperatureF,Dew PointF,Humidity,Sea Level PressureIn,VisibilityMPH,Wind Direction,Wind SpeedMPH,Gust SpeedMPH,PrecipitationIn,Events,Conditions,WindDirDegrees,DateUTC
12:53 AM,60.1,19.9,21,30.06,10.0,SSW,5.8,-,N/A,,Clear,210,2012-09-15 06:53:00
1:53 AM,61.0,17.1,18,30.05,10.0,Calm,Calm,-,N/A,,Clear,0,2012-09-15 07:53:00
2:53 AM,57.9,16.0,19,30.05,10.0,Calm,Calm,-,N/A,,Clear,0,2012-09-15 08:53:00
3:53 AM,54.0,21.9,29,30.05,10.0,West,5.8,-,N/A,,Clear,280,2012-09-15 09:53:00
4:53 AM,55.9,17.1,22,30.05,10.0,NNE,3.5,-,N/A,,Clear,20,2012-09-15 10:53:00
5:53 AM,55.9,19.0,24,30.06,10.0,WSW,5.8,-,N/A,,Clear,250,2012-09-15 11:53:00
6:53 AM,51.1,21.0,31,30.09,10.0,East,4.6,-,N/A,,Clear,90,2012-09-15 12:53:00
7:53 AM,57.0,17.1,21,30.09,10.0,Calm,Calm,-,N/A,,Clear,0,2012-09-15 13:53:00
8:53 AM,60.1,18.0,20,30.08,10.0,Calm,Calm,-,N/A,,Clear,0,2012-09-15 14:53:00
9:53 AM,66.9,21.0,17,30.08,10.0,ESE,4.6,-,N/A,,Clear,110,2012-09-15 15:53:00
10:53 AM,73.9,19.0,13,30.06,10.0,East,3.5,-,N/A,,Clear,100,2012-09-15 16:53:00
11:53 AM,79.0,17.1,10,30.03,10.0,Variable,3.5,-,N/A,,Clear,0,2012-09-15 17:53:00
12:53 PM,81.0,12.0,7,30.01,10.0,Calm,Calm,-,N/A,,Clear,0,2012-09-15 18:53:00
1:53 PM,82.9,10.9,7,29.97,10.0,Variable,3.5,-,N/A,,Clear,0,2012-09-15 19:53:00
2:53 PM,86.0,10.0,6,29.94,10.0,WNW,16.1,21.9,N/A,,Clear,300,2012-09-15 20:53:00
3:53 PM,84.9,12.0,7,29.93,10.0,NW,17.3,26.5,N/A,,Clear,310,2012-09-15 21:53:00
4:53 PM,84.9,12.9,7,29.91,10.0,West,13.8,27.6,N/A,,Clear,260,2012-09-15 22:53:00
5:53 PM,82.0,12.0,7,29.91,10.0,WNW,18.4,24.2,N/A,,Clear,300,2012-09-15 23:53:00
6:53 PM,78.1,15.1,9,29.93,10.0,West,11.5,-,N/A,,Clear,270,2012-09-16 00:53:00
7:53 PM,71.1,18.0,13,29.95,10.0,West,8.1,-,N/A,,Clear,260,2012-09-16 01:53:00
8:53 PM,70.0,18.0,14,29.96,10.0,West,3.5,-,N/A,,Clear,280,2012-09-16 02:53:00
9:53 PM,69.1,16.0,13,29.95,10.0,West,5.8,-,N/A,,Partly Cloudy,270,2012-09-16 03:53:00
10:53 PM,64.0,19.9,18,29.95,10.0,Calm,Calm,-,N/A,,Clear,0,2012-09-16 04:53:00
11:53 PM,66.9,18.0,15,29.94,10.0,West,6.9,-,N/A,,Clear,270,2012-09-16 05:53:00